Wetbulb
52.07 46.94 45.40 49.15 55.04 55.02 54.16 51.17 48.54 51.12 53.12 49.21 49.32 49.33 53.99 57.99 58.07 55.44 55.63 55.36 55.98 56.90 58.90 59.17 58.07 59.71 58.62 56.79 55.14 54.11 53.30 53.05 52.08 51.72 50.93 49.86 49.60 50.92 51.16 51.64 52.41 52.37 53.56 53.95
50.56 47.79 55.35 56.21 55.92 53.60 52.16 50.11 49.39 52.88 53.46 48.99 53.56 52.27 54.00 56.49 56.86 55.85 55.10 55.11 55.33 56.08 56.49 57.64 56.96 57.89 56.27 55.85 55.26 53.64 52.92 52.37 51.95 51.64 51.88 51.75 51.14 50.65 51.07 50.61 51.65 53.13 53.86 53.99
49.65 52.90 57.31 56.66 53.93 52.34 50.91 48.46 49.97 49.55 52.64 50.99 51.77 45.43 52.30 55.00 55.25 55.65 54.05 53.74 56.29 56.31 55.56 55.60 55.65 55.88 55.46 54.34 54.33 53.35 52.21 52.28 52.06 52.56 52.17 51.77 51.09 49.66 48.95 49.46 50.48 51.74 54.12 54.75
52.49 57.00 55.46 54.44 53.29 54.46 49.25 54.58 53.85 51.55 47.91 43.70 50.09 40.02 46.30 51.69 52.11 53.16 52.40 52.96 54.14 56.58 56.33 55.65 54.93 54.84 53.59 53.63 56.06 53.59 52.76 51.91 52.13 52.33 50.93 50.01 48.95 46.98 48.70 49.40 50.94 51.75 53.97 54.18
51.31 52.43 52.73 52.10 53.53 54.37 52.22 55.04 52.46 51.62 47.63 47.59 47.49 40.94 44.21 48.21 49.44 50.80 52.41 52.97 54.64 55.81 56.04 55.30 55.76 55.30 53.70 55.80 54.22 54.65 52.54 51.93 51.92 52.28 51.66 51.13 49.61 50.48 51.00 50.84 50.50 50.39 51.29 52.83
52.83 56.80 55.30 54.75 55.34 55.23 55.17 53.01 50.27 46.81 46.11 39.96 43.89 43.60 42.57 46.45 46.97 51.02 52.97 53.43 54.72 55.01 55.41 55.68 55.27 54.96 53.76 54.86 53.96 53.28 52.72 50.63 51.22 52.35 52.39 50.66 50.17 50.39 50.31 49.73 49.63 50.06 51.00 51.83
53.74 54.14 56.24 56.27 51.56 54.25 51.65 43.50 37.13 35.66 37.07 37.88 45.96 41.39 43.01 50.09 52.21 53.15 52.27 53.61 54.02 54.51 54.85 54.21 54.11 52.36 52.76 52.11 51.98 53.27 50.19 49.72 50.75 52.95 52.00 51.47 50.86 50.71 49.86 49.63 49.65 49.64 49.58 49.77
46.04 45.25 54.09 55.30 52.53 50.29 46.79 44.35 37.71 31.42 33.69 37.18 44.06 39.68 43.35 50.73 53.48 53.84 53.76 53.47 53.62 54.20 53.84 53.41 52.04 52.32 51.81 51.40 49.76 50.05 49.36 49.30 50.39 50.82 52.24 51.74 51.16 51.05 50.73 50.50 50.90 50.50 49.94 50.80
46.43 48.10 55.87 55.92 56.42 52.44 46.92 44.41 46.07 41.03 41.60 37.04 40.44 45.26 48.04 51.69 52.09 53.47 52.35 52.64 53.32 51.91 51.65 50.79 52.68 52.42 50.05 49.37 49.33 49.56 49.06 49.26 50.32 53.09 53.00 53.09 53.61 51.09 50.56 51.22 50.93 51.47 51.56 53.28
51.40 45.45 52.64 54.22 55.30 54.04 50.42 52.29 41.80 41.51 32.51 32.91 39.33 39.82 41.01 46.96 49.19 51.52 52.23 52.60 52.85 53.36 52.06 51.79 51.34 49.65 49.64 49.69 49.62 49.84 49.77 50.01 49.91 53.26 51.92 54.12 54.04 52.93 52.26 51.82 50.63 50.59 51.44 51.91
50.91 45.97 48.65 51.99 48.75 47.17 47.28 45.66 45.76 43.25 41.08 35.81 34.63 37.35 47.73 46.40 46.54 46.60 50.78 52.80 52.75 51.86 50.64 48.58 48.70 51.22 51.17 49.79 49.50 49.35 49.59 49.57 49.80 51.84 52.94 52.44 52.56 53.16 52.84 52.07 51.70 53.33 51.30 50.88
50.77 46.72 44.22 47.26 52.73 53.43 49.52 45.50 45.62 39.65 37.66 39.41 38.53 37.98 49.77 45.95 47.46 46.54 46.83 49.02 48.61 49.09 48.37 48.40 49.13 48.82 48.30 48.01 48.74 49.07 49.39 49.67 51.36 52.66 52.59 51.98 52.50 52.54 51.78 51.77 51.75 51.81 50.14 50.00
50.66 45.73 41.24 43.38 47.47 50.82 46.74 47.69 46.11 45.80 42.18 37.74 35.54 36.51 48.13 47.68 46.65 47.02 45.94 46.46 49.75 50.83 49.36 49.07 48.58 47.55 48.33 48.41 48.89 49.05 49.34 51.95 52.64 53.46 51.12 51.52 51.19 51.55 52.22 51.27 51.56 51.89 52.10 52.07
57.02 47.64 44.15 39.60 42.83 46.04 43.87 46.37 46.29 43.68 37.98 39.22 39.90 40.21 42.58 44.29 44.89 46.31 46.99 47.87 48.24 51.20 51.42 49.16 47.72 47.07 48.68 49.42 49.32 49.32 49.64 52.81 52.63 53.73 51.87 51.76 51.23 51.45 50.71 52.74 52.16 52.04 53.79 53.47
52.63 44.24 46.38 46.29 47.65 47.25 45.81 45.33 44.22 40.85 41.08 37.76 39.97 39.58 41.51 43.09 43.71 45.33 46.49 48.26 48.95 49.78 48.82 48.74 47.60 47.23 48.44 48.30 48.82 49.72 50.03 52.97 52.87 53.40 52.34 53.03 52.45 51.12 53.25 53.55 54.50 54.31 52.62 53.96
53.24 45.80 46.88 44.55 48.26 47.20 44.75 46.42 44.79 44.34 43.92 42.91 42.66 41.09 46.64 48.59 48.89 49.79 48.64 48.89 47.94 48.69 49.73 49.23 49.46 48.87 49.63 50.91 48.68 50.10 50.83 53.59 53.86 52.43 52.85 53.90 54.17 54.30 51.65 52.99 54.07 52.72 52.94 52.39
50.00 49.50 45.02 40.65 47.65 47.83 39.27 44.17 45.86 45.60 46.52 45.02 39.72 42.70 47.27 46.90 48.96 47.74 47.87 49.68 48.65 48.76 49.68 49.66 49.51 49.53 49.19 49.85 50.25 48.87 50.36 53.55 53.19 52.67 54.33 54.02 53.51 53.43 53.70 51.31 51.47 52.08 51.06 51.93
50.00 48.15 47.10 41.74 45.43 31.92 45.21 48.11 49.87 46.90 47.10 47.62 47.81 48.31 49.18 48.02 49.35 49.21 52.09 50.73 49.11 49.86 50.25 49.73 49.45 49.42 49.24 49.19 49.17 50.06 52.18 52.65 52.72 52.64 53.67 53.60 53.85 53.52 53.90 51.84 51.07 50.53 51.36 50.77
53.37 49.18 44.19 40.08 39.15 42.99 45.73 48.34 47.51 44.82 44.32 49.41 48.62 49.58 50.15 49.72 48.67 47.66 52.84 52.75 52.60 51.22 51.45 50.00 50.65 50.54 49.66 49.77 49.95 50.46 51.56 52.85 52.66 53.17 53.55 54.26 51.49 50.95 52.17 51.56 50.76 50.66 49.89 50.23
55.53 54.78 46.31 43.80 38.32 36.49 44.35 49.37 52.89 50.40 41.89 50.14 50.77 48.91 48.12 48.82 42.67 44.82 52.64 53.22 53.33 54.53 54.05 53.88 52.95 51.85 50.44 49.86 51.06 49.84 49.63 51.24 51.92 53.58 54.15 54.93 53.96 53.65 51.33 53.70 51.93 51.83 51.47 52.10
45.32 47.67 44.62 42.87 41.84 43.29 47.95 49.67 52.57 38.42 41.42 50.07 49.75 47.70 47.66 44.89 47.92 49.41 51.13 50.93 52.36 54.25 53.20 55.45 54.65 53.71 53.31 51.31 50.41 49.71 49.83 50.06 53.69 53.96 54.20 54.54 54.02 51.62 51.20 52.17 54.15 52.08 52.70 51.92
43.87 43.64 42.87 43.68 40.48 37.44 49.84 48.86 42.72 46.61 48.22 46.99 46.12 45.64 47.52 47.78 48.24 49.02 50.65 50.52 51.22 51.30 53.05 53.91 52.83 53.79 54.81 54.88 52.87 50.03 50.54 51.43 54.11 53.10 54.53 54.19 53.95 52.46 53.39 52.92 52.86 53.63 54.39 51.98
43.99 46.60 43.16 43.83 42.45 49.30 50.07 48.52 49.47 48.50 44.87 45.19 44.76 47.03 48.45 47.94 45.79 46.76 46.92 48.01 49.77 50.25 50.63 52.14 51.82 52.14 52.83 52.68 54.66 52.67 53.14 53.53 53.03 53.30 52.82 53.83 53.57 53.55 53.74 53.00 52.76 50.73 51.26 51.84
49.24 51.65 45.52 46.73 47.39 47.76 49.04 49.25 47.40 46.88 45.12 45.81 46.11 46.46 46.26 44.63 45.95 46.07 46.38 47.23 48.24 48.71 48.46 50.75 50.93 50.82 51.80 53.06 52.73 52.66 54.02 55.31 53.27 52.25 52.45 52.18 53.75 53.49 54.26 52.89 51.69 51.15 47.93 48.43
47.65 49.54 46.41 46.19 48.68 49.46 48.24 47.49 46.94 47.03 47.19 47.23 47.84 48.52 47.46 46.57 46.84 47.40 46.83 46.89 48.31 48.34 48.09 48.60 48.57 50.24 51.85 53.36 53.39 54.16 55.64 54.78 53.95 52.73 52.33 51.49 52.81 53.98 53.49 53.32 53.14 51.56 51.64 51.45
47.76 46.17 43.71 42.81 46.67 45.06 45.24 48.84 50.84 48.36 48.32 48.86 48.37 48.46 50.54 48.33 46.32 47.27 46.47 46.69 46.63 48.97 49.58 48.75 49.32 50.16 51.95 52.44 52.24 54.17 54.98 54.38 53.24 52.80 52.21 51.52 52.14 53.53 53.39 52.45 51.38 48.71 46.46 46.45
MSLP
1006.10 1007.43 1008.42 1008.56 1009.27 1010.30 1011.77 1013.02 1014.09 1014.37 1014.85 1016.56 1017.83 1018.52 1019.57 1018.92 1020.02 1019.91 1020.20 1020.66 1021.11 1021.47 1021.87 1021.83 1022.05 1022.85 1023.45 1023.92 1024.14 1024.47 1024.69 1024.86 1024.64 1024.47 1024.36 1023.91 1023.82 1023.42 1023.02 1022.84 1022.55 1022.43 1022.30 1022.07
1007.48 1007.98 1008.06 1007.91 1008.92 1009.71 1010.71 1012.11 1012.73 1012.69 1014.81 1016.89 1017.59 1019.32 1020.08 1020.42 1021.09 1020.51 1020.95 1021.87 1022.07 1022.14 1022.17 1022.31 1022.28 1022.71 1023.26 1023.75 1024.10 1024.55 1024.77 1024.91 1024.70 1024.37 1024.39 1024.23 1023.98 1023.57 1023.24 1022.98 1022.65 1022.49 1022.28 1022.06
1008.03 1008.59 1008.09 1008.79 1009.04 1009.65 1010.46 1010.92 1011.46 1012.11 1013.82 1015.92 1017.12 1019.64 1020.44 1021.03 1022.03 1021.94 1022.78 1022.96 1023.35 1022.96 1022.21 1022.29 1022.03 1022.50 1022.91 1023.32 1023.79 1024.38 1024.82 1024.94 1024.73 1024.28 1024.27 1024.22 1023.85 1023.61 1023.42 1023.11 1022.89 1022.61 1022.33 1022.05
1007.77 1007.58 1008.86 1009.39 1009.93 1009.97 1010.97 1011.14 1011.19 1011.29 1012.74 1015.93 1016.90 1020.54 1021.23 1021.66 1022.91 1022.62 1023.01 1022.92 1023.11 1022.94 1022.04 1022.15 1022.22 1022.66 1022.66 1023.04 1023.83 1024.44 1024.69 1024.87 1024.69 1024.14 1024.31 1024.50 1024.47 1024.13 1023.76 1023.37 1023.06 1022.65 1022.22 1021.95
1008.56 1008.75 1008.93 1008.77 1009.52 1010.04 1010.12 1010.02 1010.22 1010.68 1011.91 1015.59 1018.31 1020.24 1022.29 1022.95 1023.28 1023.18 1022.78 1022.92 1022.98 1022.73 1021.95 1022.29 1022.47 1022.76 1022.61 1023.04 1024.23 1024.55 1024.84 1024.82 1024.55 1024.27 1024.24 1024.32 1024.36 1024.02 1023.68 1023.46 1023.16 1022.83 1022.35 1021.86
1008.67 1008.79 1009.25 1009.63 1009.83 1009.59 1009.69 1010.12 1010.83 1011.34 1013.36 1017.79 1020.25 1021.49 1022.94 1023.18 1023.33 1023.03 1022.57 1022.72 1022.50 1022.48 1022.50 1022.82 1022.61 1022.64 1023.15 1023.74 1024.27 1024.63 1024.68 1024.67 1024.30 1024.12 1024.04 1024.03 1024.09 1024.01 1023.88 1023.60 1023.35 1022.92 1022.49 1021.98
1009.14 1009.41 1009.80 1010.10 1010.37 1009.72 1010.00 1010.89 1012.05 1013.66 1015.52 1019.58 1021.00 1022.09 1023.50 1022.74 1022.45 1022.04 1021.97 1022.39 1022.38 1022.41 1022.88 1023.00 1022.67 1023.05 1023.23 1023.79 1024.16 1024.37 1024.37 1024.36 1024.18 1024.01 1023.87 1023.79 1023.76 1023.72 1023.68 1023.53 1023.26 1023.02 1022.68 1022.25
1009.60 1009.65 1010.00 1010.62 1010.56 1010.56 1010.65 1011.36 1013.11 1014.77 1017.28 1020.32 1021.50 1022.85 1022.98 1022.65 1022.14 1021.38 1021.48 1021.78 1022.12 1022.40 1022.48 1022.63 1022.79 1023.15 1023.37 1023.81 1024.23 1024.32 1024.22 1024.14 1024.04 1023.85 1023.69 1023.55 1023.51 1023.42 1023.31 1023.19 1022.96 1022.82 1022.60 1022.28
1010.06 1010.00 1009.67 1010.47 1010.44 1010.67 1011.38 1012.57 1012.96 1014.73 1018.03 1020.70 1023.12 1023.48 1023.14 1022.21 1022.08 1021.87 1022.06 1022.54 1022.84 1022.58 1022.58 1022.81 1022.97 1023.34 1023.84 1024.10 1024.20 1024.30 1024.19 1024.05 1023.91 1023.73 1023.57 1023.44 1023.29 1023.11 1023.04 1022.93 1022.78 1022.57 1022.39 1021.87
1010.95 1010.89 1010.97 1010.99 1010.66 1011.73 1012.75 1013.29 1014.14 1016.17 1019.06 1021.89 1023.53 1023.56 1022.96 1022.02 1021.66 1021.73 1021.84 1022.13 1022.50 1022.51 1022.75 1022.72 1023.29 1023.70 1023.83 1023.95 1024.22 1024.16 1023.95 1023.89 1023.75 1023.54 1023.42 1023.39 1023.12 1022.96 1022.91 1022.75 1022.61 1022.46 1022.17 1021.83
1011.59 1011.96 1012.83 1012.18 1013.68 1014.12 1014.50 1015.16 1015.83 1017.90 1019.75 1021.32 1023.09 1023.77 1022.22 1021.80 1021.42 1021.61 1021.60 1021.70 1022.10 1022.23 1022.87 1023.03 1023.04 1023.26 1023.68 1023.93 1023.95 1024.03 1023.93 1023.82 1023.62 1023.44 1023.27 1023.31 1023.06 1022.94 1022.85 1022.69 1022.49 1022.31 1022.10 1021.90
1012.53 1012.99 1014.00 1014.63 1014.81 1015.34 1016.00 1016.66 1016.97 1018.33 1020.40 1021.28 1022.17 1023.01 1021.86 1021.50 1021.46 1021.49 1021.70 1021.78 1021.64 1021.86 1022.47 1022.55 1022.87 1023.24 1023.62 1023.61 1023.83 1023.84 1023.82 1023.68 1023.43 1023.19 1023.13 1023.18 1022.95 1022.93 1022.77 1022.61 1022.42 1022.12 1022.10 1021.77
1013.42 1013.98 1015.11 1015.84 1015.61 1016.23 1016.87 1017.16 1017.54 1018.55 1019.58 1020.89 1021.94 1022.89 1021.76 1021.50 1021.46 1021.39 1021.52 1021.33 1021.41 1021.54 1021.87 1022.02 1022.40 1022.90 1023.38 1023.59 1023.72 1023.77 1023.66 1023.37 1023.16 1022.95 1022.96 1023.01 1022.88 1022.79 1022.50 1022.39 1022.26 1022.07 1021.85 1021.68
1014.22 1015.51 1016.42 1017.53 1018.05 1018.10 1017.98 1018.10 1018.31 1019.13 1020.37 1021.28 1022.26 1022.50 1022.09 1021.91 1021.73 1021.47 1021.50 1021.34 1021.37 1021.31 1021.42 1021.71 1022.13 1022.66 1023.10 1023.24 1023.41 1023.50 1023.38 1023.10 1023.00 1022.84 1022.81 1022.77 1022.61 1022.54 1022.23 1022.09 1022.10 1022.01 1021.64 1021.66
1015.61 1017.07 1017.65 1018.22 1018.36 1018.34 1018.41 1018.68 1019.24 1020.01 1020.74 1021.59 1022.50 1022.37 1022.21 1021.79 1021.53 1021.43 1021.40 1021.47 1021.46 1021.57 1021.70 1021.86 1022.28 1022.73 1023.10 1023.28 1023.16 1023.17 1023.08 1022.91 1022.83 1022.73 1022.62 1022.43 1022.31 1022.18 1022.02 1021.86 1021.85 1021.82 1021.74 1021.62
1016.08 1017.86 1018.43 1018.91 1018.74 1018.95 1019.16 1019.28 1019.78 1020.59 1021.37 1021.97 1022.40 1022.87 1022.54 1022.26 1021.65 1021.96 1022.00 1021.93 1021.97 1022.01 1021.98 1022.09 1022.15 1022.46 1022.76 1022.84 1023.00 1022.84 1022.76 1022.80 1022.48 1022.52 1022.44 1022.08 1021.89 1021.91 1021.83 1021.66 1021.63 1021.63 1021.59 1021.49
1016.97 1018.18 1019.14 1020.03 1019.79 1019.48 1020.09 1020.18 1020.33 1021.55 1022.61 1023.00 1023.64 1023.73 1023.12 1023.01 1022.92 1022.72 1022.54 1022.39 1022.23 1022.16 1022.12 1022.27 1022.34 1022.49 1022.66 1022.58 1022.46 1022.70 1022.56 1022.47 1022.48 1022.29 1022.06 1021.83 1021.68 1021.70 1021.43 1021.44 1021.41 1021.56 1021.45 1021.37
1017.30 1018.42 1019.62 1020.56 1020.61 1021.12 1021.15 1020.80 1021.03 1022.42 1023.86 1024.29 1024.41 1024.24 1024.05 1023.97 1023.69 1023.38 1023.28 1024.02 1022.87 1022.37 1022.06 1022.06 1022.22 1022.41 1022.51 1022.33 1022.22 1022.34 1022.28 1022.26 1022.26 1022.06 1021.82 1021.68 1021.49 1021.26 1021.15 1021.14 1021.18 1021.25 1021.22 1021.26
1017.34 1018.56 1020.05 1020.93 1021.31 1021.89 1021.82 1022.53 1022.43 1022.31 1025.04 1025.48 1025.35 1025.23 1024.72 1024.26 1024.16 1023.99 1024.33 1024.37 1024.53 1023.40 1022.24 1021.77 1021.81 1021.94 1022.10 1022.11 1022.04 1022.12 1022.17 1022.08 1021.92 1021.78 1021.54 1021.27 1021.16 1021.19 1021.14 1021.04 1020.99 1020.96 1020.98 1021.06
1017.98 1018.64 1021.16 1021.74 1022.49 1023.44 1024.14 1023.43 1021.98 1022.13 1025.01 1025.65 1025.66 1025.46 1025.03 1024.92 1025.10 1025.07 1024.68 1024.54 1024.29 1023.60 1023.29 1023.31 1022.61 1021.86 1021.80 1021.72 1021.51 1021.86 1021.83 1021.76 1021.65 1021.41 1021.14 1020.93 1020.75 1020.83 1020.84 1020.71 1020.82 1020.70 1020.68 1020.68
1019.51 1020.58 1022.10 1022.68 1023.72 1024.89 1024.83 1024.14 1022.89 1024.40 1026.70 1026.14 1026.00 1025.91 1025.86 1025.96 1026.22 1025.62 1024.99 1024.63 1024.29 1023.79 1023.57 1023.00 1022.84 1022.47 1022.05 1021.34 1021.40 1021.53 1021.46 1021.46 1021.05 1020.96 1020.74 1020.73 1020.67 1020.68 1020.50 1020.46 1020.26 1020.29 1020.28 1020.21
1021.48 1022.13 1023.09 1023.58 1024.87 1025.98 1025.42 1024.68 1025.50 1026.61 1026.40 1026.23 1026.15 1025.98 1026.09 1026.13 1025.84 1025.68 1025.32 1024.94 1024.49 1024.03 1023.46 1023.05 1022.81 1022.28 1021.55 1021.39 1021.88 1021.43 1021.11 1020.59 1020.56 1020.55 1020.45 1020.36 1020.15 1020.19 1019.96 1020.14 1020.04 1019.96 1019.89 1019.96
1022.77 1023.45 1024.41 1025.35 1026.37 1026.40 1026.14 1026.12 1026.19 1026.19 1026.46 1026.38 1026.22 1026.12 1026.05 1025.99 1025.86 1025.55 1025.23 1024.82 1024.49 1024.11 1023.60 1023.16 1022.90 1022.38 1021.75 1021.53 1021.36 1021.14 1020.55 1020.17 1020.08 1020.15 1020.12 1020.00 1019.93 1019.85 1019.69 1019.79 1019.81 1019.81 1019.67 1019.68
1023.77 1023.81 1025.14 1025.70 1026.51 1026.27 1026.02 1026.09 1026.05 1026.05 1026.13 1026.11 1025.95 1025.86 1025.85 1025.86 1025.69 1025.54 1025.22 1024.88 1024.57 1024.20 1023.69 1023.04 1022.68 1022.35 1021.82 1021.11 1020.76 1020.39 1020.18 1019.66 1019.63 1019.76 1019.70 1019.65 1019.58 1019.41 1019.35 1019.33 1019.32 1019.37 1019.23 1019.16
1024.36 1024.35 1025.16 1025.93 1026.28 1026.15 1025.89 1025.76 1025.68 1025.68 1025.68 1025.72 1025.57 1025.57 1025.67 1025.59 1025.51 1025.52 1025.46 1025.02 1024.64 1024.21 1023.63 1023.12 1022.82 1022.43 1021.87 1020.99 1020.16 1019.63 1019.54 1019.49 1019.43 1019.29 1019.32 1019.35 1019.18 1019.07 1018.96 1018.76 1018.79 1018.85 1018.52 1018.54
1025.17 1025.25 1025.45 1025.86 1025.94 1025.85 1025.71 1025.35 1025.33 1025.56 1025.65 1025.73 1025.68 1025.49 1025.37 1025.41 1025.45 1025.25 1025.07 1024.87 1024.52 1024.22 1023.69 1023.27 1022.93 1022.56 1022.07 1021.56 1021.02 1020.46 1020.39 1019.75 1019.63 1019.58 1019.17 1019.02 1018.88 1018.65 1018.54 1018.40 1018.24 1018.03 1017.90 1017.66
Wind_Speed
10 1 7 11 9 7 11 5 9 8 6 7 8 18 12 19 11 12 16 11 12 10 11 12 9 11 7 7 8 6 6 2 3 3 3 3 4 5 3 3 5 7 5 6
8 5 19 16 15 12 10 5 9 6 11 6 7 17 7 5 6 10 11 10 8 7 10 10 8 7 6 7 8 6 5 1 2 1 3 2 2 3 1 2 5 5 6 6
6 6 15 15 15 20 18 4 5 9 14 14 13 8 5 4 14 19 17 14 5 6 9 9 7 6 7 8 8 7 5 2 1 3 3 4 4 3 4 4 3 3 4 5
4 5 8 11 8 7 7 14 15 13 3 4 4 2 8 6 11 13 11 10 11 12 10 8 7 6 6 4 8 7 5 1 2 3 2 3 2 2 3 2 3 5 4 4
4 8 4 5 3 10 5 9 11 15 7 7 9 8 8 7 6 10 10 10 11 7 5 7 5 5 4 7 7 6 5 2 3 3 1 1 3 3 3 4 6 4 5 3
3 0 4 5 5 10 7 5 12 5 6 9 10 7 4 3 5 7 5 10 7 4 10 6 6 7 7 10 9 6 5 1 2 3 4 1 3 5 5 3 4 4 4 3
3 1 3 3 6 7 3 5 5 7 6 4 3 10 4 10 3 11 10 6 5 10 9 5 4 6 7 8 7 6 5 1 3 5 3 1 2 4 5 3 3 5 4 3
5 8 4 3 7 5 6 7 4 2 3 3 9 4 4 6 11 7 10 6 8 8 7 5 7 6 5 8 6 5 4 4 3 5 4 3 1 1 2 3 3 4 2 3
4 6 9 6 4 9 6 8 4 4 7 7 1 3 4 6 9 3 6 7 2 7 6 6 7 6 7 5 6 5 4 3 5 5 4 5 2 2 3 5 3 2 3 4
5 4 10 16 16 13 10 9 8 6 4 5 4 5 6 1 6 7 7 7 8 5 7 6 6 6 6 6 5 4 2 0 3 5 4 3 5 4 4 5 5 2 3 4
6 5 6 14 10 14 10 10 6 7 3 4 5 2 5 5 7 8 5 5 7 6 9 8 7 5 7 6 5 4 4 4 4 3 3 4 5 5 4 4 4 3 3 5
3 1 5 13 13 15 11 8 6 5 2 3 5 3 5 7 6 8 7 6 5 10 10 7 8 6 8 4 6 4 1 4 4 3 4 2 5 3 3 3 3 2 2 4
6 4 4 3 6 13 10 9 5 4 4 3 5 4 2 6 7 6 5 3 4 6 7 4 6 7 8 5 5 3 2 4 2 3 4 3 4 4 3 2 1 1 2 2
7 8 10 6 5 5 6 9 10 7 4 8 7 3 7 6 6 7 7 6 6 6 4 4 4 6 7 6 6 3 2 3 3 4 4 3 3 4 3 2 1 2 3 3
8 9 12 8 9 7 5 6 13 12 9 9 6 7 4 4 4 4 5 7 8 6 6 5 6 6 6 6 5 4 1 4 3 4 4 5 3 4 0 2 2 3 3 4
3 4 6 6 8 12 12 13 13 12 11 8 8 8 8 10 9 10 7 7 7 6 7 7 6 8 7 7 5 2 1 3 3 4 6 5 6 4 4 3 1 0 2 3
4 4 3 2 4 5 8 10 9 16 17 12 7 4 9 11 7 7 6 5 5 4 4 6 5 5 6 5 5 3 2 2 4 5 5 5 1 3 2 5 1 3 1 2
5 4 2 3 2 6 3 8 13 19 16 16 13 15 10 7 8 8 17 18 8 5 3 3 2 3 3 4 5 3 3 3 5 6 5 4 5 3 2 3 1 2 2 2
4 4 2 5 2 6 10 16 10 6 8 9 11 11 9 11 9 4 11 14 16 12 4 5 3 2 6 6 6 5 4 5 4 6 5 5 4 4 4 1 3 3 1 2
4 1 8 7 3 2 9 17 17 3 5 11 6 7 6 6 7 5 7 4 8 11 10 12 12 4 5 7 6 6 7 5 6 6 6 6 6 5 4 4 3 3 2 4
5 4 4 1 4 4 11 16 8 8 5 11 9 9 9 7 4 7 9 7 7 6 7 9 7 8 12 7 7 6 7 7 6 6 5 5 6 6 6 5 3 3 4 4
5 3 4 4 4 2 14 9 7 4 5 7 7 8 4 7 9 7 10 10 9 10 11 11 6 6 8 4 6 8 8 8 6 6 5 5 6 4 4 4 4 4 5 5
6 3 3 4 4 3 2 5 5 6 4 6 7 6 6 6 5 7 7 7 7 8 8 7 10 10 8 3 2 3 12 6 7 5 7 5 5 4 6 5 5 3 4 4
5 5 5 4 2 3 6 5 4 5 5 5 5 6 6 5 7 7 7 8 6 7 8 6 7 8 11 9 6 5 13 8 6 7 6 6 5 5 5 4 4 3 4 4
2 4 5 4 5 3 4 2 3 2 3 4 7 4 6 7 6 5 7 7 8 7 7 7 7 7 11 13 9 9 7 8 11 6 5 5 5 6 6 5 5 4 6 5
3 3 2 2 4 2 5 4 7 7 5 6 5 6 6 6 5 6 5 5 5 9 10 10 8 9 9 11 11 12 9 9 8 8 5 5 4 4 4 4 5 8 13 13
Wind_Direction
266 263 270 263 208 83 123 141 164 234 197 83 242 265 95 210 206 167 173 152 151 148 140 129 126 117 120 103 98 109 91 360 19 353 341 353 345 322 334 19 347 4 335 340
17 25 346 7 51 57 44 148 201 228 142 125 105 96 157 219 175 180 131 52 71 126 133 132 133 135 123 126 117 136 128 103 345 18 318 333 293 307 317 305 349 354 345 341
113 259 323 34 27 23 3 333 270 228 159 189 110 50 19 31 52 81 82 92 281 275 146 146 138 150 147 143 158 137 130 111 340 339 346 338 332 341 356 338 320 314 329 342
146 258 327 37 49 57 258 271 283 319 235 113 319 98 29 61 64 101 131 147 214 238 165 165 142 164 138 151 114 134 114 108 290 315 2 345 302 324 294 294 292 319 329 335
18 46 8 53 299 340 262 328 295 301 346 117 360 72 325 17 108 149 187 223 229 251 189 125 129 156 131 91 119 119 135 221 295 358 35 323 333 311 309 321 328 328 328 311
126 263 34 331 309 279 345 288 287 4 98 57 9 91 288 311 198 216 214 230 238 303 121 155 158 96 79 110 118 147 142 85 359 9 326 329 341 323 326 321 352 333 321 339
169 334 110 42 352 323 319 7 357 11 25 92 169 59 311 326 324 213 202 206 160 122 119 228 108 99 92 110 154 156 119 65 350 349 347 37 320 315 326 345 333 336 326 327
349 343 150 164 216 240 341 85 106 6 55 136 10 108 227 294 319 83 132 108 124 133 174 165 118 134 106 125 145 84 98 53 18 326 330 311 86 6 332 317 308 300 296 316
345 350 28 198 67 41 5 16 331 89 101 80 3 227 295 278 292 126 130 104 203 178 168 165 101 84 106 124 110 114 81 44 351 325 330 314 323 356 303 317 317 351 346 318
351 26 23 35 34 26 65 349 23 10 51 102 66 12 331 225 226 202 192 201 179 189 163 114 111 121 148 125 138 113 91 124 298 316 338 335 336 336 340 352 323 48 343 329
19 70 54 60 57 47 14 11 31 102 93 120 141 251 271 359 46 61 113 118 149 193 103 123 149 137 132 155 144 120 58 351 332 349 26 14 353 351 347 337 348 69 354 345
13 62 81 87 71 61 50 34 14 101 291 106 116 225 357 64 66 67 55 112 135 112 149 172 151 144 146 159 116 104 29 343 319 341 0 18 4 335 344 324 17 52 2 331
320 339 119 161 34 40 29 5 13 82 72 44 101 248 279 66 64 83 77 323 161 132 118 157 150 157 143 135 120 97 323 309 295 355 18 10 2 296 286 147 148 223 214 346
86 58 83 108 87 36 34 19 31 64 62 42 91 126 42 41 37 44 21 7 140 152 170 195 116 149 144 152 134 136 311 327 326 323 327 291 303 287 258 142 163 285 274 306
91 93 87 77 112 119 82 68 58 43 20 83 81 73 64 62 57 97 62 33 26 34 64 72 97 156 152 146 153 177 58 326 302 295 307 272 294 291 40 289 286 325 341 268
46 92 85 52 82 78 36 22 73 64 33 46 54 40 17 11 13 54 36 43 26 8 41 46 40 121 168 156 147 132 120 314 341 281 291 281 253 272 272 285 1 231 336 350
80 131 66 106 338 346 29 8 28 65 42 44 42 332 19 13 28 39 5 29 26 354 52 52 95 122 156 153 140 186 224 317 289 286 302 326 13 297 351 260 310 197 275 317
113 89 86 142 257 60 62 20 86 81 42 16 13 5 18 5 329 34 32 352 348 349 103 87 83 171 181 173 160 193 270 284 293 273 298 279 248 297 318 50 72 235 197 229
124 113 133 137 146 135 36 14 345 338 58 20 11 323 349 359 357 334 40 17 331 320 294 187 190 186 190 198 197 194 253 270 276 274 277 273 232 281 294 216 293 279 223 237
26 357 55 356 86 131 360 353 320 341 77 355 338 342 335 355 1 294 3 334 319 7 7 3 333 288 198 226 197 201 235 245 261 268 264 263 226 245 294 241 249 250 235 261
31 46 157 198 106 55 329 360 351 54 310 317 5 356 28 39 25 345 348 349 344 329 329 11 321 320 289 235 207 220 232 243 241 253 269 240 258 245 257 265 215 236 243 271
60 319 30 36 70 42 340 31 63 246 341 3 6 339 47 27 14 359 356 353 346 351 354 349 335 330 303 35 304 239 237 238 241 256 258 261 281 241 261 229 269 272 249 249
45 54 91 51 118 203 19 79 24 42 25 357 355 4 54 24 338 332 326 330 334 342 342 355 346 342 310 313 271 261 268 232 237 250 246 247 265 251 265 249 277 282 270 253
60 51 109 95 56 98 86 69 52 64 30 6 350 22 17 350 335 330 334 337 346 343 339 324 334 333 328 312 258 241 277 264 223 242 246 242 246 257 256 249 255 271 258 272
24 44 114 117 140 199 75 99 101 72 13 7 332 15 338 333 332 359 354 345 342 324 319 324 332 331 336 327 292 272 271 250 256 239 243 248 240 246 252 237 228 234 259 206
27 327 75 100 144 101 285 309 65 48 45 20 23 11 355 29 15 359 327 318 339 345 353 1 347 349 359 28 20 28 7 35 355 327 267 255 251 255 252 244 278 245 243 248